User: anonymous   Login
Location: Unspecified
(0.0000°N, 0.0000°E)
Time: 23:57:40
(UTC+00:00)
Language:

ATS 6 - Orbit

View from above orbital plane
View from above orbital plane
View from above satellite
View from above satellite

Ground track
Ground track

The orbit data is extracted from the following two-line orbital elements,

1 07318U 74039A   21023.59561844  .00000079  00000-0  00000-0 0  9998
2 07318   6.8326 289.8860 0026762 269.7837 316.3330  1.01976424101906
Epoch (UTC): 23 January 2021 14:17:41
Eccentricity: 0.0026762
inclination: 6.8326°
perigee height: 35203 km
apogee height: 35426 km
right ascension of ascending node: 289.8860°
argument of perigee: 269.7837°
revolutions per day: 1.01976424
mean anomaly at epoch: 316.3330°
orbit number at epoch: 10190

The dashed part of the orbit path shows where the satellite is in the earth's shadow,  

DLR